EHI
0 0 2 3 2 0 0 0 0 0 0 0 0 0 0 0 0 0 0 0 0 0 0 0 0 0 0 0 0 0 0 0 0 0 0 0 0 0 0 0 0 0 0
0 1 3 5 4 2 1 1 0 0 0 0 0 0 0 0 0 0 0 0 0 0 0 0 0 0 0 0 0 0 0 0 0 0 0 0 0 0 0 0 0 0 0
1 2 5 7 7 4 3 2 1 1 0 0 0 0 0 0 0 0 0 0 0 0 0 0 0 0 0 0 0 0 0 0 0 0 0 0 0 0 0 0 0 0 0
1 2 5 7 7 4 3 3 2 1 1 0 0 0 0 0 0 0 0 0 0 0 0 0 0 0 0 0 0 0 0 0 0 0 0 0 0 0 0 0 0 0 0
1 1 4 7 7 4 3 3 2 1 1 0 0 0 0 0 0 0 0 0 0 0 0 0 0 0 0 0 0 0 0 0 0 0 0 0 0 0 0 0 0 0 0
1 1 4 7 9 6 4 3 2 1 0 0 0 0 0 0 0 0 0 0 0 0 0 0 0 0 0 0 0 0 0 0 0 0 0 0 0 0 0 0 0 0 0
1 2 4 8 10 8 6 5 4 2 1 0 0 0 0 0 0 0 0 0 0 0 0 0 0 0 0 0 0 0 0 0 0 0 0 0 0 0 0 0 0 0 0
1 2 5 8 9 8 6 6 5 3 2 1 0 0 0 0 0 0 0 0 0 0 0 0 0 0 0 0 0 0 0 0 0 0 0 0 0 0 0 0 0 0 0
1 2 4 5 6 5 4 4 4 3 2 1 0 0 0 0 0 0 0 0 0 0 0 0 0 0 0 0 0 0 0 0 0 0 0 0 0 0 0 0 0 0 0
1 2 3 3 3 3 2 1 1 2 2 1 0 0 0 0 0 0 0 0 0 0 0 0 0 0 0 0 0 0 0 0 0 0 0 0 0 0 0 0 0 0 0
1 2 3 4 4 3 2 0 0 1 1 0 0 0 0 0 0 0 0 0 0 0 0 0 0 0 0 0 0 0 0 0 0 0 0 0 0 0 0 0 0 0 0
0 1 2 4 5 4 2 0 0 0 0 0 0 0 0 0 0 0 0 0 0 0 0 0 0 0 0 0 0 0 0 0 0 0 0 0 0 0 0 0 0 0 0
0 0 1 2 3 3 2 1 0 0 0 0 0 0 0 0 0 0 0 0 0 0 0 0 0 0 0 0 0 0 0 0 0 0 0 0 0 0 0 0 0 0 0
0 0 0 1 2 3 2 1 0 0 0 0 0 0 0 0 0 0 0 0 0 0 0 0 0 0 0 0 0 0 0 0 0 0 0 0 0 0 0 0 0 0 0
0 0 0 1 2 3 2 1 0 0 0 0 0 0 0 0 0 0 0 0 0 0 0 0 0 0 0 0 0 0 0 0 0 0 0 0 0 0 0 0 0 0 0
0 0 0 0 1 2 2 1 0 0 0 0 0 0 0 0 0 0 0 0 0 0 0 0 0 0 0 0 0 0 0 0 0 0 0 0 0 0 0 0 0 0 0
0 0 0 0 0 1 1 0 0 0 0 0 0 0 0 0 0 0 0 0 0 0 0 0 0 0 0 0 0 0 0 0 0 0 0 0 0 0 0 0 0 0 0
0 0 0 0 0 0 0 0 0 0 0 0 0 0 0 0 0 0 0 0 0 0 0 0 0 0 0 0 0 0 0 0 0 0 0 0 0 0 0 0 0 0 0
0 0 0 0 0 0 0 0 0 0 0 0 0 0 0 0 1 0 0 0 0 0 0 0 0 0 0 0 0 0 0 0 0 0 0 0 0 0 0 0 0 0 0
0 0 0 0 0 0 0 0 0 0 0 0 0 0 0 0 0 0 0 0 0 0 0 0 0 0 0 0 0 0 0 0 0 0 0 0 0 0 0 0 0 0 0
0 0 0 0 0 0 0 0 0 0 0 0 0 0 0 0 0 0 0 0 0 0 0 0 0 0 0 0 0 0 0 0 0 0 0 0 0 0 0 0 0 0 0
0 0 0 0 0 0 0 0 0 0 0 0 0 0 0 0 0 0 0 0 0 0 0 0 0 0 0 0 0 0 0 0 0 0 0 0 0 0 0 0 0 0 0
0 0 0 0 0 0 0 0 0 0 0 0 0 0 0 0 0 0 0 0 0 0 0 0 0 0 0 0 0 0 0 0 0 0 0 0 0 0 0 0 0 0 0
0 0 0 0 0 0 0 0 0 0 0 0 0 0 0 0 0 0 0 0 0 0 0 0 0 0 0 0 0 0 0 0 0 0 0 0 0 0 0 0 0 0 0
0 0 0 0 0 0 0 0 0 0 0 0 0 0 0 0 0 0 0 0 0 0 0 0 0 0 0 0 0 0 0 0 0 0 0 0 0 0 0 0 0 0 0
0 0 0 0 0 0 0 0 0 0 0 0 0 0 0 0 0 0 0 0 0 0 0 0 0 0 0 0 0 0 0 0 0 0 0 0 0 0 0 0 0 0 0
Wind_Speed
1 2 2 4 5 6 7 8 8 9 9 10 10 10 11 11 11 11 11 11 11 12 12 13 13 14 14 14 14 14 14 13 14 13 13 12 13 13 13 13 11 8 13
1 1 2 3 5 6 7 7 8 9 9 9 9 10 10 10 10 11 11 11 11 11 12 12 13 13 13 13 13 13 13 12 12 12 11 10 10 12 13 12 11 8 13
1 1 1 4 6 6 7 7 7 8 8 8 8 9 9 9 10 10 11 11 11 11 11 12 12 12 12 12 12 12 12 12 11 11 9 6 6 11 12 12 12 13 12
2 2 2 4 6 7 7 7 7 7 8 8 8 8 9 9 9 10 10 10 10 11 11 11 11 11 11 11 11 12 12 12 11 9 5 5 4 9 11 11 12 12 12
3 2 2 5 6 7 7 7 8 7 7 7 8 8 8 8 9 9 9 9 9 10 10 10 10 10 10 10 10 11 11 11 11 8 5 4 4 8 10 11 11 11 12
4 4 3 6 6 6 6 7 7 7 7 8 7 7 7 8 8 8 8 8 8 9 9 9 9 9 9 9 10 10 10 10 8 5 4 4 3 8 9 10 10 10 11
3 4 4 6 6 6 6 7 7 7 8 8 8 7 7 7 7 7 8 7 8 8 8 8 8 8 8 8 9 9 10 9 6 4 4 3 4 8 8 9 9 10 10
3 3 3 5 6 7 6 6 6 7 7 7 7 7 7 7 7 7 7 7 7 7 7 7 7 8 8 8 8 9 9 8 6 5 3 3 5 7 7 8 8 8 9
4 4 4 3 4 5 6 7 6 6 7 7 7 7 7 7 6 6 6 6 6 6 6 6 7 7 7 7 8 8 8 8 4 3 3 2 5 7 7 7 8 8 8
4 4 4 4 4 3 3 5 7 6 6 7 7 7 6 6 6 6 5 5 5 5 5 5 6 6 7 7 7 8 8 6 4 3 2 2 5 6 6 6 7 7 7
4 3 3 3 4 3 2 4 5 5 5 5 5 6 5 2 2 3 4 5 5 5 5 5 5 5 6 6 7 7 6 2 3 2 2 3 4 5 5 5 6 6 7
2 2 2 3 3 3 2 2 2 2 2 2 2 2 2 2 2 3 4 5 4 4 4 4 5 5 4 2 4 4 2 2 2 2 2 4 4 4 4 4 4 5 6
0 2 2 2 2 2 2 1 1 1 1 2 2 2 1 1 1 2 1 2 2 3 2 2 3 2 2 1 1 1 2 2 1 1 2 3 3 3 3 3 3 4 4
0 1 1 2 1 1 1 1 1 1 1 1 2 1 1 1 1 1 1 1 1 1 1 1 1 2 2 1 1 1 1 1 1 1 1 3 3 2 2 2 3 3 4
0 1 1 1 1 1 1 1 1 0 1 1 1 1 1 1 1 0 0 0 1 1 1 1 1 1 1 1 1 1 1 0 0 0 1 2 2 2 1 2 2 2 3
1 1 1 1 1 1 1 1 1 1 1 1 1 1 1 1 1 1 1 0 0 1 1 0 0 0 0 0 1 0 0 0 0 0 0 1 2 2 1 1 2 2 2
2 1 1 1 1 0 1 1 1 2 1 1 1 2 1 2 2 2 1 1 1 1 1 1 0 0 0 1 1 1 1 1 1 1 1 1 1 2 2 1 1 1 1
2 1 2 1 1 1 1 2 1 2 1 1 1 1 2 2 2 2 2 1 1 1 0 0 0 0 0 1 1 1 1 1 2 2 1 1 1 1 2 2 1 1 1
3 2 2 1 1 2 2 1 1 2 2 2 1 1 2 2 2 2 2 2 2 1 1 1 0 1 1 1 1 1 1 2 2 2 2 2 1 1 1 1 1 2 2
2 2 2 1 2 1 1 1 1 2 2 1 1 1 2 2 2 2 2 2 2 1 1 1 1 1 1 1 2 2 2 2 2 2 2 2 2 2 1 1 1 1 2
1 1 2 1 1 0 0 1 1 2 2 1 1 1 2 1 1 2 2 2 2 2 2 2 1 1 1 0 0 1 2 2 2 2 2 1 2 2 1 1 1 1 1
2 2 2 2 2 1 1 1 1 2 2 2 2 1 2 2 2 2 3 2 2 2 2 1 1 1 1 0 1 0 1 2 1 2 1 2 2 1 1 1 1 1 1
2 3 2 2 1 1 1 0 1 1 1 1 1 2 2 2 2 2 3 3 3 3 3 3 3 2 1 1 1 1 1 2 2 2 2 2 1 1 1 2 2 2 2
3 3 2 2 1 1 0 1 1 1 2 2 2 2 3 3 3 3 3 3 3 3 3 4 3 2 3 2 1 1 2 2 1 2 2 2 2 3 3 3 3 3 3
2 2 2 1 1 1 0 1 1 2 2 2 2 3 3 3 3 3 3 2 3 3 3 4 3 3 2 3 2 2 2 2 2 2 3 2 2 3 3 3 3 3 3
1 1 1 1 1 1 1 1 2 3 3 2 3 3 3 3 3 3 3 3 3 3 4 3 3 3 3 3 3 2 2 2 2 2 3 3 4 3 3 3 3 3 3
Wind_Direction
294 302 344 21 51 53 53 56 61 61 66 69 70 69 67 67 66 68 70 67 67 70 72 73 72 71 70 70 70 71 71 67 66 66 65 67 72 74 75 73 73 69 77
223 294 4 43 59 58 57 56 62 62 63 67 71 70 69 69 67 68 70 70 69 71 73 76 74 72 70 68 69 70 70 67 66 64 59 59 68 76 78 78 80 79 79
95 47 36 54 61 60 58 56 62 64 66 69 74 74 71 71 69 69 71 70 71 71 74 76 74 72 69 67 67 67 67 65 67 62 56 48 63 77 79 80 81 80 81
86 69 52 58 63 61 57 55 60 65 67 70 77 77 75 74 73 72 71 70 70 72 73 75 75 72 69 66 66 65 63 62 63 58 51 42 53 77 80 82 82 82 82
62 39 47 61 64 62 57 55 58 59 63 68 76 78 76 76 76 73 71 72 73 75 75 74 73 71 67 65 66 64 61 60 56 54 46 42 45 74 77 79 81 82 82
50 29 41 55 59 60 59 55 60 59 61 61 69 79 77 75 77 76 71 69 72 77 78 75 72 71 67 67 66 63 60 60 53 46 44 40 43 73 79 80 82 83 84
55 34 40 50 51 53 58 56 60 58 58 58 60 74 76 75 76 77 74 72 71 76 78 75 71 67 66 68 67 62 60 56 53 43 42 41 52 73 80 83 85 84 86
74 48 37 46 45 43 44 51 58 58 56 54 54 66 70 71 71 72 73 75 73 76 80 78 72 67 66 68 66 61 57 55 60 47 35 41 61 70 82 83 85 87 88
73 55 31 24 33 39 41 39 49 56 52 49 49 56 61 63 64 67 69 75 76 77 75 76 74 70 65 64 62 60 56 53 50 37 38 35 60 68 79 84 87 88 89
66 54 31 21 20 18 24 35 41 46 50 47 46 49 52 56 56 55 52 64 70 72 75 73 73 73 65 60 60 60 56 55 42 35 28 41 61 70 77 84 88 89 87
46 37 33 22 16 6 12 33 36 40 43 47 44 45 45 41 45 51 43 52 56 64 70 68 70 70 61 58 60 61 57 49 41 30 27 48 65 69 75 86 90 90 90
20 8 23 23 13 4 7 28 20 30 31 31 35 36 38 35 40 46 41 47 45 46 51 52 51 60 56 49 54 56 57 56 54 28 27 43 67 67 72 86 96 96 93
308 359 0 3 13 12 5 12 18 18 18 15 19 28 42 45 44 46 41 37 37 37 34 32 37 40 48 43 40 49 67 65 53 14 17 30 55 71 81 95 107 112 111
3 310 335 358 0 358 6 345 25 19 2 353 342 352 80 79 61 58 57 19 16 12 17 20 22 32 38 36 51 53 59 68 58 13 4 15 27 60 94 109 116 125 126
250 286 314 341 337 341 357 329 356 298 282 292 310 306 180 152 159 161 131 73 7 354 357 3 4 24 19 14 28 51 40 75 96 23 337 348 3 24 87 121 140 142 159
248 269 295 293 284 328 294 284 288 261 257 254 269 280 228 184 176 181 182 175 273 333 318 282 272 300 289 315 349 326 263 217 209 258 283 309 337 346 325 167 143 154 170
230 253 275 267 289 283 274 259 272 261 242 238 254 260 233 196 189 188 194 204 228 259 306 315 302 340 337 330 303 272 245 238 231 231 235 246 280 313 312 253 199 175 180
218 233 254 258 277 271 263 259 262 261 234 234 243 252 235 212 195 189 199 215 225 208 235 257 252 322 309 314 293 269 259 245 233 230 223 222 237 278 295 298 292 263 249
208 214 239 261 255 257 257 255 268 268 238 234 234 238 233 221 202 194 204 211 209 190 217 236 266 247 259 295 286 276 262 252 232 223 228 222 219 233 252 268 291 295 283
211 209 222 244 258 267 270 285 292 286 257 238 232 234 233 225 220 203 206 207 196 186 214 228 221 261 236 249 278 288 272 255 231 216 224 227 230 224 215 222 254 282 291
211 215 224 236 258 252 269 253 268 276 271 269 252 244 247 233 239 219 211 205 195 194 209 219 211 216 287 268 38 321 302 264 233 218 219 221 235 233 206 206 214 268 276
211 222 233 235 240 233 234 227 245 270 263 264 266 269 264 253 246 241 208 207 203 199 210 217 172 185 256 314 159 141 311 295 275 256 235 217 222 223 219 237 235 239 261
237 231 234 236 242 253 252 246 330 345 326 301 295 289 279 267 256 250 227 206 200 198 208 220 193 178 206 261 207 181 189 242 287 264 235 227 224 228 235 243 243 246 258
249 241 237 238 246 258 189 183 191 231 252 264 269 278 286 267 261 256 236 214 202 207 212 218 207 195 185 219 247 247 236 214 228 274 264 251 247 243 243 255 253 248 244
256 245 237 243 267 283 240 208 210 261 259 276 285 287 289 282 267 264 243 225 217 212 215 210 210 204 197 210 224 238 255 270 241 235 259 263 268 250 241 242 245 242 238
299 300 287 267 285 287 267 246 238 264 270 272 273 272 276 283 277 275 266 241 232 222 216 214 212 211 213 215 228 228 223 220 232 237 251 258 260 257 252 243 241 241 241